星链-30379 (STARLINK-30379 )

导读

STARLINK-30379是美国太空探索技术公司SpaceX星链星座的卫星,于2023年9月9日发射。星链计划旨在构建全球卫星互联网星座,该卫星入轨后为偏远地区、海上及航空场景等提供低延迟宽带网络服务,进一步扩充星链星座规模,提升星座服务覆盖范围与网络稳定性。

基本信息
目录编号:
57811
目录名称:
STARLINK-30379
国际标识:
2023-138D
轨道中心:
EARTH
卫星名称:
星链-30379
卫星全名:
星链-30379 (STARLINK-30379 )
卫星状态:
在轨 (已飞行1098 天)
发射日期:
2023-09-09 UTC
国别 :
美国 (US)
星等 :
--
该卫星已列入 空间交会检测服务 Space Conjunction Data Service (SCDS) ,当前飞行风险评估等级: 高风险
轨道信息
数据来源 国际轨道数据
星历时间: 2026-09-11T10:12:23+0800
11小时前
查看轨道信息
半长轴: 6861.202km
偏心率: 0.0001372
轨道倾角: 43.004°
近地点辐角 277.261°
升交点赤经 267.094°
平近点角 82.808°
近地点: 482.123km
远地点: 484.007km
周期: 94.267分钟
每日圈数: 15.275748
详细信息
固有亮度:
5
最大亮度:
0.3
卫星平台:
Starlink v2.0 mini
覆盖范围:
全球
运营商:
太空探索技术公司
运营商所在国:
美国
制造商(研发单位):
太空探索技术公司
制造商所在国:
美国
使用方式:
暂无
卫星简介
星链(Starlink)计划是由太空探索技术公司(SpaceX)提出的一个巨型低轨卫星互联网星座项目,计划在2019年至2024年间在太空搭建由约1.2万颗卫星组成的“星链”网络,其中1584颗将部署在地球上空550千米处的近地轨道,并从2020年开始工作。该卫星仍在工作。
2D轨道图
3D轨道图
轨道高度分析图
轨道倾角分析图
轨道综合分析图
查看轨道综合分析图
交会数据列表
事件ID 空间交会对象 最接近时刻(TCA) 交会距离 交会风险概率(CRP) 交会风险指数(CRI) 操作
CDM_260912-191305-781106-763222
2026-09-12T
19:13:59+0000
0.357 km
远距离
2.8288E-4 高风险 0.84
CDM_260913-085405-781105-994221
2026-09-13T
08:54:48+0000
0.738 km
远距离
4.757728E-5 中风险 0.69
CDM_260913-083405-781106-763221
2026-09-13T
08:34:18+0000
1.113 km
极远距离
1.172381E-5 中风险 0.56
CDM_260913-072005-781105-994221
2026-09-13T
07:20:39+0000
1.302 km
极远距离
6.973315E-6 低风险 0.52
CDM_260913-070005-781106-763221
2026-09-13T
07:00:09+0000
1.894 km
极远距离
2.16795E-6 低风险 0.42
CDM_260913-054605-781105-994221
2026-09-13T
05:46:29+0000
1.914 km
极远距离
2.150847E-6 低风险 0.42
CDM_260912-204805-781106-763221
2026-09-12T
20:48:09+0000
1.902 km
极远距离
2.143846E-6 低风险 0.42
CDM_260912-173905-781106-763222
2026-09-12T
17:39:50+0000
1.994 km
极远距离
1.902635E-6 低风险 0.41
CDM_260911-140004-944005-781121
2026-09-11T
14:00:19+0000
2.331 km
极远距离
1.708174E-6 低风险 0.4
CDM_260913-041205-781105-994221
2026-09-13T
04:12:20+0000
2.536 km
极远距离
1.181238E-6 低风险 0.36
与全量物体交会距离演化趋势
与全量物体交会风险概率演化趋势